Watertown, WI

2:17 AM CST on December 06, 2019 (GMT -0600)
Watertown Municipal

Weather History for KRYV - November, 2019

Change the Weather History Date:

Tuesday, November 19, 2019

  Actual Average Record
Temperature  
Mean Temperature 33 °F -  
Max Temperature 35 °F 44 °F 70 °F (1930)
Min Temperature 31 °F 29 °F 8 °F (1932)
Degree Days  
Heating Degree Days 32    
Moisture  
Dew Point 34 °F    
Average Humidity 100    
Maximum Humidity 100    
Minimum Humidity 97    
Precipitation  
Precipitation 0.00 in - - ()
Sea Level Pressure  
Sea Level Pressure 29.83 in    
Wind  
Wind Speed 1 mph ()    
Max Wind Speed 6 mph    
Max Gust Speed -    
Visibility 8.6 miles    
Events Rain    
Averages and records for this station are not official NWS values.
T = Trace of Precipitation, MM = Missing Value Source: Averaged Metar Reports

Daily Weather History Graph

Daily Weather History Graph

Search for Another Location

Airport or City:

Astronomy

Nov. 19, 2019 Rise Set
Actual Time 6:52 AM CST 4:27 PM CST
Civil Twilight 6:21 AM CST 4:58 PM CST
Nautical Twilight 5:46 AM CST 5:33 PM CST
Astronomical Twilight 5:13 AM CST 6:06 PM CST
Moon 11:24 PM CST (11/19) 1:01 PM CST (11/19)
Length of Visible Light 10h 37m
Length of Day
9h 35m
Waning Gibbous, 51% of the Moon is Illuminated
Nov 19
Waning Gibbous
Nov 19
Last Quarter
Nov 26
New
Dec 4
First Quarter
Dec 11
Full

Hourly Weather History & Observations

Time (CST) Temp. Windchill Dew Point Humidity Pressure Visibility Wind Dir Wind Speed Gust Speed Precip Events Conditions
12:15 AM 32.0 °F 28.7 °F 32.0 °F 100% 29.74 in 10.0 mi WSW 3.5 mph - N/A   Overcast
12:35 AM 32.0 °F 26.4 °F 32.0 °F 100% 29.74 in 10.0 mi SW 5.8 mph - N/A   Overcast
12:55 AM 32.0 °F 27.5 °F 32.0 °F 100% 29.74 in 10.0 mi SSW 4.6 mph - N/A   Overcast
1:15 AM 32.0 °F 28.7 °F 32.0 °F 100% 29.73 in 10.0 mi WSW 3.5 mph - N/A   Overcast
1:35 AM 32.0 °F - 32.0 °F 100% 29.72 in 10.0 mi Calm Calm - N/A   Overcast
1:55 AM 32.0 °F - 32.0 °F 100% 29.72 in 10.0 mi Calm Calm - N/A   Overcast
2:15 AM 32.0 °F - 32.0 °F 100% 29.73 in 10.0 mi Calm Calm - N/A   Overcast
2:35 AM 32.0 °F - 32.0 °F 100% 29.73 in 10.0 mi Calm Calm - N/A   Overcast
2:55 AM 32.0 °F - 32.0 °F 100% 29.72 in 10.0 mi Calm Calm - N/A   Overcast
3:15 AM 32.0 °F - 32.0 °F 100% 29.72 in 10.0 mi Calm Calm - N/A   Overcast
3:35 AM 32.0 °F - 32.0 °F 100% 29.73 in 10.0 mi Calm Calm - N/A   Overcast
3:55 AM 32.0 °F - 32.0 °F 100% 29.73 in 10.0 mi Calm Calm - N/A   Overcast
4:15 AM 31.6 °F - 31.6 °F 100% 29.72 in 10.0 mi Calm Calm - N/A   Overcast
4:35 AM 31.6 °F - 31.6 °F 100% 29.73 in 7.0 mi Calm Calm - N/A   Overcast
4:55 AM 31.6 °F - 31.6 °F 100% 29.74 in 10.0 mi Calm Calm - N/A   Overcast
5:15 AM 31.6 °F - 31.6 °F 100% 29.74 in 10.0 mi Calm Calm - N/A   Overcast
5:35 AM 31.6 °F - 31.6 °F 100% 29.74 in 10.0 mi Calm Calm - N/A   Overcast
5:55 AM 31.6 °F - 31.6 °F 100% 29.74 in 7.0 mi Calm Calm - N/A   Overcast
6:15 AM 31.6 °F - 31.6 °F 100% 29.74 in 7.0 mi Calm Calm - N/A   Overcast
6:35 AM 31.6 °F - 31.6 °F 100% 29.75 in 7.0 mi Calm Calm - N/A   Overcast
6:55 AM 31.6 °F - 31.6 °F 100% 29.76 in 7.0 mi Calm Calm - N/A   Overcast
7:15 AM 31.6 °F - 31.6 °F 100% 29.76 in 7.0 mi Calm Calm - N/A   Overcast
7:35 AM 31.6 °F - 31.6 °F 100% 29.77 in 5.0 mi Calm Calm - N/A   Overcast
8:15 AM 32.0 °F - 32.0 °F 100% 29.77 in 5.0 mi Calm Calm - N/A   Overcast
8:35 AM 32.0 °F - 32.0 °F 100% 29.77 in 5.0 mi Calm Calm - N/A   Overcast
8:55 AM 32.0 °F - 32.0 °F 100% 29.78 in 5.0 mi Calm Calm - N/A   Overcast
9:15 AM 32.0 °F - 32.0 °F 100% 29.78 in 7.0 mi Calm Calm - N/A   Overcast
9:35 AM 32.2 °F - 32.2 °F 100% 29.79 in 7.0 mi Calm Calm - N/A   Overcast
9:55 AM 32.4 °F - 32.4 °F 100% 29.80 in 10.0 mi Calm Calm - N/A   Overcast
10:15 AM 32.9 °F - 32.9 °F 100% 29.81 in 10.0 mi Calm Calm - N/A   Overcast
10:35 AM 33.3 °F - 33.3 °F 100% 29.81 in 10.0 mi Calm Calm - N/A   Overcast
10:55 AM 33.4 °F 30.4 °F 32.9 °F 98% 29.81 in 10.0 mi West 3.5 mph - N/A   Overcast
11:15 AM 33.4 °F 30.4 °F 33.4 °F 100% 29.81 in 10.0 mi West 3.5 mph - N/A   Overcast
11:35 AM 33.1 °F 30.0 °F 33.1 °F 100% 29.82 in 5.0 mi West 3.5 mph - N/A   Overcast
11:55 AM 33.3 °F 30.2 °F 33.3 °F 100% 29.82 in 7.0 mi WNW 3.5 mph - N/A   Overcast
12:15 PM 33.3 °F - 33.3 °F 100% 29.82 in 7.0 mi Calm Calm - N/A   Overcast
12:35 PM 33.6 °F - 33.6 °F 100% 29.82 in 7.0 mi Calm Calm - N/A   Overcast
12:55 PM 33.8 °F - 33.8 °F 100% 29.82 in 7.0 mi Calm Calm - N/A   Overcast
1:15 PM 33.8 °F - 33.8 °F 100% 29.82 in 10.0 mi Calm Calm - N/A   Overcast
1:35 PM 34.7 °F - 33.8 °F 97% 29.83 in 10.0 mi Calm Calm - N/A Rain Light Rain
1:55 PM 34.9 °F - 34.5 °F 99% 29.83 in 10.0 mi Calm Calm - N/A   Light Drizzle
2:15 PM 35.1 °F - 34.9 °F 99% 29.84 in 10.0 mi Calm Calm - N/A   Overcast
2:35 PM 35.1 °F - 35.1 °F 100% 29.84 in 10.0 mi Calm Calm - N/A   Light Drizzle
2:55 PM 35.1 °F - 34.7 °F 99% 29.85 in 10.0 mi Calm Calm - N/A   Overcast
3:15 PM 35.6 °F - 35.4 °F 99% 29.86 in 10.0 mi Calm Calm - N/A   Overcast
3:35 PM 35.6 °F - 34.7 °F 97% 29.88 in 10.0 mi Calm Calm - N/A   Overcast
3:55 PM 35.6 °F - 34.9 °F 97% 29.88 in 10.0 mi Calm Calm - N/A   Overcast
4:15 PM 35.6 °F - 35.1 °F 98% 29.89 in 10.0 mi Calm Calm - N/A   Overcast
4:35 PM 35.4 °F - 35.2 °F 99% 29.89 in 10.0 mi Calm Calm - N/A   Overcast
4:55 PM 35.6 °F - 35.1 °F 98% 29.89 in 10.0 mi Calm Calm - N/A   Overcast
5:35 PM 35.4 °F - 35.4 °F 100% 29.90 in 10.0 mi Calm Calm - N/A   Overcast
5:55 PM 35.2 °F - 35.2 °F 100% 29.91 in 10.0 mi Calm Calm - N/A   Overcast
6:15 PM 35.4 °F - 35.4 °F 100% 29.92 in 10.0 mi Calm Calm - N/A   Overcast
6:35 PM 35.2 °F - 35.2 °F 100% 29.92 in 10.0 mi Calm Calm - N/A   Overcast
6:55 PM 35.1 °F - 35.1 °F 100% 29.92 in 10.0 mi Calm Calm - N/A   Overcast
7:15 PM 35.2 °F - 35.2 °F 100% 29.93 in 10.0 mi Calm Calm - N/A   Overcast
7:35 PM 35.1 °F - 35.1 °F 100% 29.93 in 10.0 mi Calm Calm - N/A   Overcast
7:55 PM 35.2 °F - 35.2 °F 100% 29.94 in 10.0 mi Calm Calm - N/A   Overcast
8:35 PM 35.6 °F - 35.6 °F 100% 29.94 in 10.0 mi Calm Calm - N/A   Overcast
8:55 PM 35.6 °F - 35.6 °F 100% 29.95 in 7.0 mi Calm Calm - N/A   Overcast
9:15 PM 35.6 °F - 35.6 °F 100% 29.95 in 7.0 mi Calm Calm - N/A   Overcast
9:35 PM 35.1 °F - 35.1 °F 100% 29.95 in 7.0 mi Calm Calm - N/A   Overcast
9:55 PM 35.1 °F - 35.1 °F 100% 29.96 in 7.0 mi Calm Calm - N/A   Overcast
10:15 PM 35.2 °F - 35.2 °F 100% 29.96 in 7.0 mi Calm Calm - N/A   Overcast
10:35 PM 35.6 °F - 35.6 °F 100% 29.98 in 7.0 mi Calm Calm - N/A   Overcast
10:55 PM 35.6 °F - 35.6 °F 100% 29.99 in 5.0 mi Calm Calm - N/A   Overcast
11:15 PM 35.6 °F - 35.6 °F 100% 29.98 in 5.0 mi Calm Calm - N/A   Overcast
11:35 PM 35.8 °F - 35.8 °F 100% 29.99 in 5.0 mi Calm Calm - N/A   Overcast
11:55 PM 35.8 °F - 35.8 °F 100% 30.00 in 5.0 mi Calm Calm - N/A   Overcast